DECAYED

OBJECT F, 57009 (Decayed)

Orbit data source: Space-Track

You're viewing an Uncataloged Satellite

Recently launched and/or uncataloged satellites may have evolving metadata. Metadata may include but not limited to: Owner, Maufacturer, Bus, Motor, and Mission.

OBJECT F, 57009 was a Chinese satellite in LEO that was launched on Thu, 15 Jun 2023 UTC via a CHANG ZHENG 2D launch vehicle from the Taiyaun Space Center, China (TSC). Unknown objects in Earth's orbit typically refer to objects detected orbiting the Earth but have not yet been identified or cataloged. These objects could be anything from previously untracked satellites, spent rocket stages, debris from satellite collisions, or even natural meteoroids temporarily captured by Earth's gravity. This object's orbit decayed before it could be identified.

Not visible in the next 10 days
Identifier
57009, 2023-085F
Orbit
Decayed
Country
Flag of CNCN / PRC
Related business
None
Manufacturer
Unknown
Mission
Decayed Commercial Imaging
Bus & Motor
Unknown
Mass
Unknown
Launch date (UTC)
2023-06-15 (3 years ago)
Launch vehicle
CHANG ZHENG 2D
Launch site
Taiyaun Space Center, China (TSC)
Object type
Unknown
Shape & HBR
Box, 0.8 m
Radar Cross Section
2.000 m², Medium (>0.1 m² and < 1m²)

Expand to show TLE details & history
Last TLE update: 4 months ago

TLE from 4 months ago
0 OBJECT F
1 57009U 23085F   26043.24648696  .17820690  26127-5  37086-3 0  9992
2 57009  97.4442 171.4120 0009567 268.6750  91.3457 16.46352718148757
Epoch: 2026-02-12T05:54Z
TLE epoch observation values (Epoch: 2026-02-12T05:54:56.473Z)
Latitude
0.00002°
Longitude
-59.6243°
Altitude
152.369 km
Speed
7.815 km/s
True Right ascension
11h 25m 38s
True Declination
0° 00' 00"
Sunlit
Object was in full shadow at epoch
Visualization orbit readout
Latitude
Unknown
Longitude
Unknown
Altitude
Unknown
Speed
Unknown
Apparent Right ascension
Unknown
Apparent Declination
Unknown
Sunlit
N/A
Visualization observer readout
Local Sidereal Time
21:25:31
Azimuth
Unknown
Elevation
Unknown
Doppler factor
Unknown
Orbital elements
Apogee altitude
152 km
Perigee altitude
139.518 km
Semi-major axis
6,523.896 km
Eccentricity
0.00096
Inclination
97.4442°
RAAN
171.412°
Arg. of periapsis
268.675°
True anomaly
91.4553°
Mean anomaly
91.3457°
Eccentric anomaly
91.4005°
Mean motion
4.11891 °/min
Orbital period
87.4 mins
BSTAR
0.00037086
Loading maneuver chart data...
Computing Atmospheric mass density...
Loading historical data...
Loading historical data...
Loading historical data...
Loading historical data...
Loading historical data...
Loading historical data...
Loading historical data...

Documentation

Showing up to 5 results
|